sat.trackr.live / text

‹ back to catalog

STARLINK-36205

NORAD 67098 · 2025-298Z

PAYLOAD ACTIVE UNKNOWN

§ Identity

Operator
Country
US
Launch date
2025-12-14
Launch site
AFWTR
Launch vehicle
Mass (kg)
RCS (m²)

Purposes: comms

External: N2YO · Heavens-Above · Gunter

§ Orbital elements

Epoch: 2026-09-20T04:40:50.562624Z

Period
96.11 min
Inclination
69.9994°
Eccentricity
0.0003932
Mean motion
14.98324016 rev/d
Perigee alt
569.3 km
Apogee alt
574.8 km
Semi-major
6,950.2 km
B*
3.3422e-4
RAAN
243.9907°
Arg perigee
276.3240°
Mean anomaly
83.7472°
Rev number
4,235

§ Raw data

STARLINK-362051 67098U 25298Z   26263.19502966  .00003897  00000+0  33422-3 0  99962 67098  69.9994 243.9907 0003932 276.3240  83.7472 14.98324016 42356

JSON: /api/v1/satellites/67098 · /tle

For live sub-satellite position, see the globe view (requires WebGL).

§ Visibility from observer

Set your observer location to see the next 7 days of passes ≥ 10°. The values pass through the URL so the page stays shareable.

No JS? Fill the form by hand. The geolocation button needs JavaScript.